Location: Newark
(40.9833°N, 0.0333°W)
Time: 05:25:39
(UTC+00:00)

Vanguard 2 Rocket - Pass Details

Date: 31 October 2020
Orbit: 554 x 3326 km, 32.9° (Epoch: 24 November)

Event Time Altitude Azimuth Distance (km) Brightness Sun altitude
Rises 17:41:54 0° 239° (WSW) 2,842 11.0 -9.1°
Reaches altitude 10° 17:44:31 10° 225° (SW) 1,841 9.4 -9.5°
Maximum altitude 17:47:44 24° 169° (S) 1,176 7.5 -10.1°
Drops below altitude 10° 17:51:08 10° 114° (ESE) 1,944 8.1 -10.8°
Enters shadow 17:51:12 10° 114° (ESE) 1,966 8.1 -10.8°
Sets 17:54:00 0° 101° (E) 3,046 - -11.3°
